Weather History for LGEL - August, 2013

Change the Weather History Date:

Saturday, August 3, 2013

  Actual Average Record
Temperature  
Mean Temperature 86 °F -  
Max Temperature 93 °F 89 °F 102 °F (2005)
Min Temperature 78 °F 71 °F 66 °F (2000)
Cooling Degree Days 20    
Growing Degree Days 36 (Base 50)    
Moisture  
Dew Point 52 °F    
Average Humidity 31    
Maximum Humidity 47    
Minimum Humidity 21    
Precipitation  
Precipitation 0.00 in - - ()
Sea Level Pressure  
Sea Level Pressure 29.93 in    
Wind  
Wind Speed 10 mph ()    
Max Wind Speed 17 mph    
Max Gust Speed 32 mph    
Visibility 6.2 miles    
Events      
Averages and records for this station are not official NWS values.
T = Trace of Precipitation, MM = Missing Value Source: Averaged Metar Reports

Daily Weather History Graph

Daily Weather History Graph

Search for Another Location

Airport or City:

Trip Planner

Search our weather history database for the weather conditions in past years. The results will help you decide how hot, cold, wet, or windy it might be!

Date:

Astronomy

Aug. 03, 2013 Rise Set
Actual Time 6:30 AM EEST 8:33 PM EEST
Civil Twilight 6:01 AM EEST 9:02 PM EEST
Nautical Twilight 5:25 AM EEST 9:37 PM EEST
Astronomical Twilight 4:47 AM EEST 10:15 PM EEST
Moon 3:24 AM EEST (8/3) 6:01 PM EEST (8/3)
Length of Visible Light 15h 00m
Length of Day
14h 02m
Waning Crescent, 11% of the Moon is Illuminated
Aug 3
Waning Crescent
Aug 7
New
Aug 14
First Quarter
Aug 21
Full
Aug 28
Last Quarter

Hourly Weather History & Observations

Time (EEST) Temp. Heat Index Dew Point Humidity Pressure Visibility Wind Dir Wind Speed Gust Speed Precip Events Conditions
12:50 AM 78.8 °F - 51.8 °F 39% 29.95 in - NNW 11.5 mph - N/A   Clear
1:50 AM 78.8 °F - 51.8 °F 39% 29.92 in - NNW 9.2 mph - N/A   Clear
2:50 AM 80.6 °F - 51.8 °F 37% 29.92 in - NNW 10.4 mph - N/A   Clear
3:50 AM 80.6 °F - 51.8 °F 37% 29.92 in - NNW 8.1 mph - N/A   Clear
4:50 AM 80.6 °F 80.3 °F 53.6 °F 39% 29.92 in - NW 9.2 mph - N/A   Clear
5:50 AM 78.8 °F - 53.6 °F 42% 29.92 in - NNW 10.4 mph - N/A   Clear
6:20 AM 78.8 °F - 55.4 °F 44% 29.92 in - NNW 10.4 mph - N/A   Clear
6:50 AM 78.8 °F - 57.2 °F 47% 29.92 in - NNW 11.5 mph - N/A   Clear
7:20 AM 78.8 °F - 57.2 °F 47% 29.92 in - NNW 12.7 mph - N/A   Clear
7:50 AM 80.6 °F 80.8 °F 57.2 °F 45% 29.92 in - NNW 15.0 mph - N/A   Clear
8:20 AM 82.4 °F 82.0 °F 57.2 °F 42% 29.95 in - NNW 13.8 mph 25.3 mph N/A   Clear
8:50 AM 84.2 °F 83.5 °F 57.2 °F 40% 29.95 in - North 11.5 mph 23.0 mph N/A   Clear
9:20 AM 84.2 °F 83.0 °F 55.4 °F 37% 29.95 in - North 13.8 mph - N/A   Clear
9:50 AM 86.0 °F 84.5 °F 55.4 °F 35% 29.95 in - North 11.5 mph - N/A   Clear
10:20 AM - - 53.6 °F N/A% 29.95 in - NNW 12.7 mph - N/A   Clear
10:50 AM 87.8 °F 85.7 °F 53.6 °F 31% 29.95 in 6.2 mi North 11.5 mph - N/A   Partly Cloudy
11:20 AM 89.6 °F 87.3 °F 53.6 °F 29% 29.95 in 6.2 mi North 12.7 mph - N/A   Partly Cloudy
11:50 AM 89.6 °F 87.3 °F 53.6 °F 29% 29.95 in 6.2 mi North 13.8 mph - N/A   Partly Cloudy
12:20 PM 91.4 °F - 51.8 °F 26% 29.95 in 6.2 mi North 15.0 mph 26.5 mph N/A   Partly Cloudy
12:50 PM 91.4 °F - 51.8 °F 26% 29.95 in 6.2 mi NNE 11.5 mph 23.0 mph N/A   Partly Cloudy
1:20 PM 91.4 °F - 51.8 °F 26% 29.92 in 6.2 mi North 12.7 mph 24.2 mph N/A   Partly Cloudy
1:50 PM 91.4 °F - 51.8 °F 26% 29.92 in 6.2 mi NNW 17.3 mph 32.2 mph N/A   Partly Cloudy
2:20 PM 91.4 °F - 51.8 °F 26% 29.92 in 6.2 mi NNE 16.1 mph 29.9 mph N/A   Partly Cloudy
2:50 PM 93.2 °F 90.8 °F 53.6 °F 26% 29.92 in 6.2 mi North 13.8 mph 27.6 mph N/A   Partly Cloudy
3:20 PM 91.4 °F 89.1 °F 53.6 °F 28% 29.92 in 6.2 mi North 11.5 mph 28.8 mph N/A   Partly Cloudy
3:50 PM 91.4 °F 89.1 °F 53.6 °F 28% 29.92 in 6.2 mi North 11.5 mph 26.5 mph N/A   Partly Cloudy
4:20 PM 91.4 °F - 51.8 °F 26% 29.92 in 6.2 mi North 12.7 mph 27.6 mph N/A   Partly Cloudy
4:50 PM 91.4 °F - 51.8 °F 26% 29.92 in - North 16.1 mph 28.8 mph N/A   Clear
5:20 PM 91.4 °F - 50.0 °F 24% 29.92 in - NNW 16.1 mph 27.6 mph N/A   Clear
5:50 PM 91.4 °F - 50.0 °F 24% 29.92 in - North 12.7 mph 24.2 mph N/A   Clear
6:20 PM 91.4 °F - 46.4 °F 21% 29.92 in - North 11.5 mph 23.0 mph N/A   Clear
6:50 PM 91.4 °F - 46.4 °F 21% 29.92 in - North 15.0 mph 27.6 mph N/A   Clear
7:20 PM 89.6 °F - 46.4 °F 22% 29.92 in - NNW 13.8 mph - N/A   Clear
7:50 PM 87.8 °F - 46.4 °F 24% 29.92 in - North 15.0 mph - N/A   Clear
8:20 PM 87.8 °F - 46.4 °F 24% 29.92 in - North 9.2 mph - N/A   Clear
8:50 PM 86.0 °F - 46.4 °F 25% 29.92 in - North 8.1 mph - N/A   Clear
9:20 PM 84.2 °F - 46.4 °F 27% 29.92 in - North 4.6 mph - N/A   Clear
9:50 PM 82.4 °F - 46.4 °F 28% 29.92 in - Calm Calm - N/A   Clear
10:20 PM 82.4 °F - 46.4 °F 28% 29.92 in - Calm Calm - N/A   Clear
10:50 PM 80.6 °F - 46.4 °F 30% 29.92 in - Calm Calm - N/A   Clear
11:20 PM 82.4 °F - 48.2 °F 30% 29.92 in - Calm Calm - N/A   Clear
11:50 PM 80.6 °F - 46.4 °F 30% 29.92 in - North 5.8 mph - N/A   Clear